Regional Weather Roundup
Issued by NWS Cleveland, OH

Home | Current Version | Previous Version | Text Only | Print | Product List | Glossary Off
Versions: 1 2 3 4 5 6 7 8 9 10 11 12 13 14 15 16 17 18 19 20 21 22 23 24 25 26 27 28 29 30 31 32 33 34 35 36 37 38 39 40 41 42 43 44 45 46 47 48 49 50

000
ASUS41 KCLE 301912
RWRCLE
OHIO REGIONAL WEATHER ROUNDUP
NATIONAL WEATHER SERVICE WILMINGTON, OH
300 PM EDT MON MAY 30 2016

NOTE: "FAIR" INDICATES FEW OR NO CLOUDS BELOW 12,000 FEET WITH NO
SIGNIFICANT WEATHER AND/OR OBSTRUCTIONS TO VISIBILITY.

OHZ001>008-015>018-024>027-034-035-043-044-302000-
   NORTHWEST OHIO

CITY           SKY/WX    TMP DP  RH WIND       PRES   REMARKS
DEFIANCE       PTSUNNY   86  53  32 NW12G18   30.00F
FINDLAY        FAIR      85  50  29 N8        29.99F
TOLEDO EXPRESS FAIR      84  48  28 NW12      29.98F
TOLEDO EXEC    FAIR      86  53  32 W13G18    29.99F
LIMA           FAIR      84  52  33 NW13G21   30.02F
$$

OHZ009>014-019>023-028>033-038-089-302000-
   NORTHEAST OHIO

CITY           SKY/WX    TMP DP  RH WIND       PRES   REMARKS
CLE-HOPKINS    FAIR      81  55  40 W10       30.04S
CLE-LAKEFRONT  FAIR      73  64  73 W6        30.02S
CUY CO. ARPT   MOSUNNY   79  59  50 W12       30.04S
LORAIN-ELYRIA  FAIR      81  54  39 N14       30.02F
ASHTABULA      FAIR      79  59  50 NW8       30.02F
AKRON-CANTON   FAIR      81  57  43 NW13      30.02F
WOOSTER        FAIR      81  56  42 N8        30.03F
MANSFIELD      FAIR      81  59  47 NW8       30.03F
YOUNGSTOWN     CLOUDY    81  56  42 NW10      30.02F
$$

OHZ042-051>053-060>062-070>072-077>081-302000-
  SOUTHWEST OHIO

CITY           SKY/WX    TMP DP  RH WIND       PRES   REMARKS
CINC-COVINGTON FAIR      85  56  37 N9        30.04S
CINC-LUNKEN    FAIR      84  57  39 VRB3      30.02F
HAMILTON       FAIR      87  57  35 NW8       30.03F
DAYTON         FAIR      84  54  35 VRB5      30.04F
WRIGHT-PAT AFB SUNNY     84  57  39 NW10      30.02F
DAYTON GENERAL FAIR      84  54  35 VRB6      30.03S
WILMINGTON     FAIR      82  59  45 VRB6G16   30.03F
$$

OHZ036-037-039>041-045>050-054>059-063>069-073>076-082>088-302000-
  CENTRAL AND SOUTHEAST OHIO

CITY           SKY/WX    TMP DP  RH WIND       PRES   REMARKS
COLUMBUS       PTSUNNY   82  57  42 N9        30.01F
OSU AIRPORT    FAIR      82  59  45 VRB6      30.01F
BOLTON FIELD   PTSUNNY  N/A N/A N/A NW6       30.02F
RICKENBACK AFB FAIR      83  59  44 N7        30.01S
NEWARK         FAIR      85  56  37 VRB6      30.00F
MARION         FAIR      83  55  38 W9        30.02F
LANCASTER      FAIR      82  58  43 VRB7      30.02F
ZANESVILLE     FAIR      83  58  42 N8        30.02F
NEW PHILLY     FAIR      86  56  35 NW8       30.02F
$$




USA.gov is the U.S. government's official web portal to all federal, state and local government web resources and services.